Regional Weather Roundup
Issued by NWS

Home | Current Version | Previous Version | Text Only | Print | Product List | Glossary On
Versions: 1 2 3 4 5 6 7 8 9 10 11 12 13 14 15 16 17 18 19 20 21 22 23 24 25 26 27 28 29 30 31 32 33 34 35 36 37 38 39 40 41 42 43 44 45 46 47 48 49 50
000
ASUS42 KTBW 051610
RWRFL
FLORIDA REGIONAL WEATHER ROUNDUP
NATIONAL WEATHER SERVICE TAMPA BAY RUSKIN FL
1100 AM EST THU MAR 05 2015

NOTE: "FAIR" INDICATES FEW OR NO CLOUDS BELOW 12,000 FEET WITH NO
SIGNIFICANT WEATHER AND/OR OBSTRUCTIONS TO VISIBILITY.


FLZ001>010-012>015-112-114-115-051700-
PANHANDLE FLORIDA

CITY           SKY/WX    TMP DP  RH WIND       PRES   REMARKS
PENSACOLA      RAIN      50  48  93 NW22G28   30.10R FOG     WCI  43
PENSACOLA NAS  LGT RAIN  51  50  96 NW21G31   30.09R
MILTON NAS     CLOUDY    48  46  93 N16G29    30.11R WCI  42
CRESTVIEW      RAIN      55  53  93 NW20G37   30.10R FOG
DUKE FIELD     HVY RAIN  72  70  94 W12       30.04R VSB 1
VALPARAISO     DRIZZLE   68  68  99 S10       30.02R FOG
MARY ESTHER    LGT RAIN  70  63  78 S9        30.01R
TRI COUNTY     CLOUDY    75  69  81 S9G20     30.03S
PANAMA CITY    CLOUDY    74  70  87 S17G23    30.04R
TYNDALL AFB    PTSUNNY   73  70  88 S15       30.04F
APALACHICOLA   CLOUDY    75  68  78 S9        30.07S

STATION/POSITION SKY/WX   TEMP    WIND        PRES    WAVE   SWELL
                          AIR SEA DIR/SP/G            HT/PER HT/PER
                          (F)     (DEG/KT/KT) (MB)    (FT/S) (FT/S)
30.1N   87.6W              57 65  330/ 27/ 33 1016.7R   3/ 7   2/ 7
29.2N   88.2W              61 71  320/ 33/ 39 1018.7R   5/ 7
28.7N   86.0W              73 70  200/ 10/ 12 1018.4    4/ 7   3/ 7
PANAMA CITY BEAC           63 62  130/  8/  9 1017.1R
CAPE SAN BLAS    NOT AVBL
TOWER C                    68     180/ 15/ 15 1018.4R
28.5N   84.5W              71 68  190/ 10/ 12 1019.1R   3/ 6   3/ 6

$$
FLZ011-016>038-118-127-128-134-139-239-051700-
NORTH FLORIDA

CITY           SKY/WX    TMP DP  RH WIND       PRES   REMARKS
MARIANNA       CLOUDY    76  69  79 SW14G23   30.03S
TALLAHASSEE    CLOUDY    73  67  81 S6        30.08S
CROSS CITY       N/A     78  66  66 S16G25    30.10R
LAKE CITY      CLOUDY    73  66  78 SW12      30.11R
GAINESVILLE    CLOUDY    75  66  73 SW13G22   30.11S
MAYPORT NAS    PTSUNNY   77  66  68 S21G26    30.09F
JACKSONVILLE   PTSUNNY   77  67  71 S17G24    30.08F
JAX NAS        PTSUNNY   73  64  73 S14       30.10F
JAX CRAIG      CLOUDY    75  64  68 SW17G28   30.09F
JAX CECIL      PTSUNNY   75  66  73 S13       30.10F
FERNANDINA BEA PTSUNNY   81  68  65 SW17G24   30.08R
ST AUGUSTINE   MOSUNNY   79  65  62 SW13G25   30.10F

STATION/POSITION SKY/WX   TEMP    WIND        PRES    WAVE   SWELL
                          AIR SEA DIR/SP/G            HT/PER HT/PER
                          (F)     (DEG/KT/KT) (MB)    (FT/S) (FT/S)
SHELL POINT                63     180/  6/  9   N/A
KEATON BEACH               68     170/ 13/ 17 1019.8R
CEDAR KEY                  67     160/ 10/ 12 1020.1S
FERNANDINA                 72 56  190/ 13/ 19 1018.0R
30.7N   81.3W                 55                N/A     3/ 6   2/11
MAYPORT                    72 56  220/ 14/ 18 1018.8R
31.4N   80.9W              59 55  200/ 14/ 14 1018.1R   3/10   2/10
ST AUGUSTINE               76     200/ 19/ 23 1019.5F

$$
FLZ040-043>046-052-053-057-058-063-144-051700-
INTERIOR CENTRAL FLORIDA

CITY           SKY/WX    TMP DP  RH WIND       PRES   REMARKS
OCALA          PTSUNNY   79  66  65 S16       30.12F
THE VILLAGES     N/A     81  66  61 S14G21    30.04S
LEESBURG       PTSUNNY   79  66  64 S13       30.15S
SANFORD        MOSUNNY   79  63  57 SW16      30.13F
ORLANDO EXEC   MOSUNNY   79  64  60 SW16      30.13F
ORLANDO INTL   PTSUNNY   79  67  66 S16       30.14F
KISSIMMEE      PTSUNNY   79  68  69 SW13      30.15S
WINTER HAVEN   MOSUNNY   81  67  62 S9        30.15F
LAKELAND       PTSUNNY   81  68  65 SW13G18   30.14F
BARTOW         PTSUNNY   79  66  65 S14G25    30.15F
OKEECHOBEE     PTSUNNY   79  70  73 S13G20    30.16R

$$
FLZ041-047-054-059-064-141-147-051700-
EAST CENTRAL FLORIDA

CITY           SKY/WX    TMP DP  RH WIND       PRES   REMARKS
ORMOND BEACH   MOSUNNY   79  64  61 S14G21    30.12F
DAYTONA BEACH  MOSUNNY   81  65  58 SW14G21   30.13F
DELAND         MOSUNNY   81  64  57 SW13G21   30.14S
NEW SMYRNA BEA PTSUNNY   81  70  69 S12G21    30.14F
JFK SPACE CTR  MOSUNNY   80  67  63 SW14      30.13F
TITUSVILLE     PTSUNNY   79  68  69 SW17      30.15F
CAPE CANAVERAL SUNNY     80  68  67 SW14      30.14S
PATRICK AFB    SUNNY     81  69  66 SW13      30.15R
MELBOURNE      PTSUNNY   80  67  64 SW12      30.15R
VERO BEACH     MOSUNNY   82  66  58 SW13      30.15R
FT PIERCE      MOSUNNY   82  67  60 MISG      30.15R
STUART         PTSUNNY   79  64  61 S12G20    30.15R

STATION/POSITION SKY/WX   TEMP    WIND        PRES    WAVE   SWELL
                          AIR SEA DIR/SP/G            HT/PER HT/PER
                          (F)     (DEG/KT/KT) (MB)    (FT/S) (FT/S)
28.5N   80.2W              71 71  220/  6/  8 1021.5R
28.9N   78.5W              74 75  180/ 14/ 16 1021.5S   4/10   3/10
TRIDENT PIER               77 69  200/ 11/ 14 1021.5F
28.4N   80.5W                 68                N/A     3/ 5
27.6N   80.2W                 74                N/A     4/11   2/11

$$
FLZ050-056-061-142-242-148-248-149-249-151-251-155-255-
160-260-051700-
WEST CENTRAL FLORIDA

CITY           SKY/WX    TMP DP  RH WIND       PRES   REMARKS
CRYSTAL RIVER  CLOUDY    77  66  69 S10G16    30.12F
INVERNESS      CLOUDY    77  64  65 SW5       30.14S
BROOKSVILLE    MOSUNNY   77  67  71 SW15      30.14F
ZEPHYRHILLS    PTSUNNY   79  68  69 SW12      30.15S
CLEARWATER     PTSUNNY   79  70  74 S20       30.13F
TAMPA INTL     MOSUNNY   76  69  79 S12       30.14F
TAMPA EXEC     MOSUNNY   81  70  69 S13G22    30.14F
PLANT CITY     PTSUNNY  N/A N/A N/A SW15      30.16F
MACDILL AFB    SUNNY     77  75  92 SW13      30.14S
PETER O KNIGHT SUNNY     79  72  78 S8        30.14F
ST PETERSBURG  MOSUNNY   77  69  76 S13G21    30.12F
SARASOTA       SUNNY     78  69  73 S16       30.12S
VENICE         FAIR      77  72  83 S14G21    30.15S

STATION/POSITION SKY/WX   TEMP    WIND        PRES    WAVE   SWELL
                          AIR SEA DIR/SP/G            HT/PER HT/PER
                          (F)     (DEG/KT/KT) (MB)    (FT/S) (FT/S)
CEDAR KEY                  67     160/ 10/ 12 1020.1S
28.5N   84.5W              71 68  190/ 10/ 12 1019.1R   3/ 6   3/ 6
27.3N   84.3W                 71                N/A     4/ 6
CLEARWATER BEACH           69 66  240/  7/ 12 1020.6R
MIDDLE TAMPA BAY           72     280/  4/  5 1021.0S
VENICE                     72 69  160/  8/  8 1020.4R

$$
FLZ066-069-070-075>078-162-262-165-265-051700-
SOUTHWEST FLORIDA AND KEYS

CITY           SKY/WX    TMP DP  RH WIND       PRES   REMARKS
PUNTA GORDA    MOSUNNY   82  69  64 S17       30.16S
FT MYERS       MOSUNNY   82  69  64 S14       30.13R
SOUTHWEST INTL MOSUNNY   81  68  64 S9        30.14R
NAPLES         PTSUNNY   81  70  69 S12       30.14R
MARCO ISLAND   PTSUNNY   81  70  69 S13G24    30.14R
IMMOKALEE      PTSUNNY  N/A N/A N/A S6        30.15R
MARATHON       SUNNY     81  74  79 SE10      30.13R
KEY WEST NAS   MOSUNNY   82  72  71 S14       30.13R
KEY WEST INTL  SUNNY     80  73  79 SE13      30.13R

STATION/POSITION SKY/WX   TEMP    WIND        PRES    WAVE   SWELL
                          AIR SEA DIR/SP/G            HT/PER HT/PER
                          (F)     (DEG/KT/KT) (MB)    (FT/S) (FT/S)
VENICE                     72 69  160/  8/  8 1020.4R
NAPLES                     77 70  170/  4/ 12 1020.3R
26.0N   85.6W              77 77  150/ 10/ 10 1019.0R   4/ 7   3/ 7
DRY TORTUGAS               76     150/ 13/ 14 1019.3R
NW FL BAY                  78     140/ 12/ 15 1020.3R
SAND KEY                   76     150/ 14/ 16 1020.0R
SOMBRERO KEY               77     140/ 15/ 16 1020.9R
LONG KEY                   78 77  150/ 13/ 14 1020.9R
MOLASSES REEF              77 75  150/ 16/ 17 1020.5R

$$
FLZ067-068-071>074-168-172>174-051700-
SOUTHEAST FLORIDA

CITY           SKY/WX    TMP DP  RH WIND       PRES   REMARKS
W PALM BEACH   PTSUNNY   82  69  64 S17G23    30.14R
FT LAUDER-EXEC MOSUNNY   82  68  62 SE16G23   30.15R
FT LAUDERDALE  PTSUNNY   80  71  74 S15G23    30.14R
POMPANO BEACH  SUNNY     82  70  66 S16G25    30.15R
PEMBROKE PINES PTSUNNY   82  68  62 SE20G25   30.16R
OPA LOCKA      MOSUNNY   83  69  62 S18       30.15R
MIAMI          PTSUNNY   82  69  64 S16G24    30.15R
WEST KENDALL   MOSUNNY   82  69  64 S14       30.15R
HOMESTEAD      MOSUNNY   81  70  69 SE13G21   30.14

STATION/POSITION SKY/WX   TEMP    WIND        PRES    WAVE   SWELL
                          AIR SEA DIR/SP/G            HT/PER HT/PER
                          (F)     (DEG/KT/KT) (MB)    (FT/S) (FT/S)
PORT EVERGLADES            78     160/  8/ 11 1021.0
VIRGINIA KEY               77 76  160/ 13/ 16 1020.6S


USA.gov is the U.S. government's official web portal to all federal, state and local government web resources and services.